Temperature
19 19 19 19 19 19 19 19 19 19 18 18 18 18 18 18 18 18 18 18 18 18 18 18 18 18 18 18 18 18 18 18 18 18 17 17 17 17 17 17 17 17 17
19 19 19 19 19 19 19 19 19 19 18 18 18 18 18 18 18 18 18 18 18 18 18 18 18 18 18 18 18 18 18 18 18 17 17 17 17 17 17 17 17 17 17
20 19 19 19 19 19 19 19 19 19 18 18 18 18 18 18 18 18 18 18 18 18 18 18 18 18 18 18 18 18 17 17 17 17 17 17 17 17 17 17 17 17 17
20 20 19 19 19 19 19 19 19 19 18 18 18 18 18 18 18 18 18 18 18 18 18 18 18 18 18 18 18 17 17 17 17 17 17 17 17 17 17 17 17 17 17
20 20 19 19 19 19 19 19 19 19 19 18 18 18 18 18 18 18 18 18 18 18 18 18 18 18 18 17 17 17 17 17 17 17 17 17 17 17 17 17 17 17 17
20 20 20 19 19 19 19 19 19 19 19 18 18 18 18 18 18 18 18 18 18 18 18 18 18 18 18 17 17 17 17 17 17 17 17 17 17 17 17 17 17 17 17
20 20 20 19 19 19 19 19 19 19 19 18 18 18 18 18 18 18 18 18 18 18 18 18 18 18 18 17 17 17 17 17 17 17 17 17 17 17 17 17 17 17 17
20 20 20 19 19 19 19 19 19 19 18 18 18 18 18 18 18 18 18 18 18 18 18 18 18 18 18 17 17 17 17 17 17 17 17 17 17 17 17 17 17 17 17
20 20 20 20 19 19 19 19 19 19 18 18 19 19 18 18 18 18 18 18 18 18 18 18 18 18 18 18 17 17 17 17 18 18 17 17 17 17 17 17 17 17 17
20 20 20 20 20 19 19 19 19 19 18 18 18 18 18 18 18 18 18 18 18 18 18 18 18 18 18 18 17 17 17 18 18 18 18 18 18 18 18 17 17 17 17
20 20 20 20 19 19 19 19 19 18 18 18 18 18 18 18 18 18 18 18 18 18 18 18 18 18 18 18 18 17 17 18 18 18 18 18 18 18 18 17 17 17 17
20 20 20 20 19 19 19 19 19 18 18 18 18 18 18 18 18 18 18 18 18 18 18 18 18 18 18 18 18 17 18 18 18 18 18 18 18 18 18 17 17 17 17
20 20 20 20 19 19 19 19 19 19 18 18 18 18 18 18 18 18 18 18 18 18 18 18 18 18 18 18 18 18 18 18 18 18 18 18 18 18 18 18 17 17 17
20 20 20 20 19 19 19 19 19 19 18 18 18 18 18 18 18 18 18 18 18 18 18 18 18 18 18 18 18 18 18 18 18 18 18 18 18 18 18 18 17 17 17
20 20 20 20 19 19 19 19 19 19 19 18 18 18 18 18 18 18 18 18 18 18 18 18 18 18 18 18 18 18 18 18 18 18 18 18 18 18 18 17 17 17 17
21 20 20 20 20 19 19 19 19 19 19 18 18 18 18 18 18 18 18 18 18 18 18 18 18 18 18 18 18 18 18 18 18 18 18 18 18 18 18 17 17 17 17
21 21 20 20 20 20 19 19 19 19 19 19 18 18 18 18 18 18 18 18 18 18 18 18 18 18 18 18 18 18 18 18 18 18 18 18 18 18 18 17 17 17 17
21 21 20 20 20 20 19 19 19 19 19 19 19 18 18 18 18 18 18 18 18 18 18 18 18 18 18 18 18 18 18 18 18 18 18 18 18 18 17 17 17 17 17
21 21 21 20 20 20 19 19 19 19 19 19 19 19 18 18 18 18 18 18 18 18 18 18 18 18 18 18 18 18 18 18 18 18 18 18 18 18 17 17 17 17 17
21 21 21 20 20 20 19 19 19 19 19 18 18 18 18 18 18 18 18 18 18 18 18 18 18 18 18 18 18 18 18 18 18 18 18 18 18 17 17 17 17 17 17
22 21 21 20 20 20 20 19 19 19 19 18 18 18 18 18 18 18 18 18 18 18 18 18 18 18 18 18 18 18 18 18 18 18 18 18 17 17 17 17 17 17 17
22 21 21 21 20 20 20 19 19 19 19 18 18 18 18 18 18 18 18 18 18 18 18 18 18 18 18 18 18 18 17 18 18 17 17 17 17 17 17 17 17 17 17
22 22 21 21 20 20 20 19 19 19 19 18 18 18 18 18 18 18 18 18 18 18 18 18 18 18 18 18 17 17 17 17 17 17 17 17 17 17 17 17 17 16 16
22 22 21 21 20 20 20 19 19 19 19 19 18 18 18 18 18 18 18 18 18 18 18 18 18 18 18 18 17 17 17 17 17 17 17 17 17 16 16 16 16 16 16
22 22 21 21 20 20 20 19 19 19 19 19 18 18 18 18 18 18 18 18 18 18 18 18 18 18 17 17 17 17 17 17 17 16 16 16 16 16 16 16 16 16 16
22 21 21 21 20 20 20 19 19 19 19 19 18 18 18 18 18 18 18 18 18 18 18 18 18 17 17 17 17 17 17 17 17 16 16 16 16 16 15 15 15 15 15
Wind_Speed
3 6 12 13 14 14 15 16 16 17 18 18 18 19 19 20 20 20 21 20 21 21 21 21 21 21 21 21 21 21 21 21 21 20 20 20 20 20 20 20 18 17 19
7 10 13 14 14 14 15 15 16 16 17 18 18 18 19 19 19 20 20 20 20 19 19 19 19 20 19 19 20 20 20 20 20 20 19 18 19 19 19 18 17 16 18
8 11 13 14 14 14 14 15 15 16 16 17 17 17 17 18 18 19 19 19 19 18 18 18 18 18 18 18 18 18 19 18 19 19 17 15 16 18 18 18 18 18 17
11 11 13 14 14 14 14 14 15 15 16 16 16 16 16 17 17 18 18 18 17 17 17 17 17 16 16 16 16 16 16 17 17 16 13 13 14 17 17 17 17 17 17
10 12 14 14 14 14 14 13 14 14 15 15 15 15 16 16 16 17 17 16 16 16 16 16 15 15 14 14 14 13 14 14 15 14 13 13 14 16 16 16 16 16 16
9 12 14 14 14 14 13 13 13 14 14 14 14 15 15 15 16 15 15 15 15 15 14 14 13 13 12 12 11 11 11 13 14 13 13 13 13 15 16 16 16 15 15
8 11 13 14 14 14 13 13 12 12 13 13 13 14 14 14 14 14 14 14 13 13 12 12 11 10 10 10 9 10 11 13 13 13 12 13 14 15 15 15 15 14 14
11 11 13 14 13 13 13 12 12 12 12 12 12 13 13 13 13 13 13 12 12 11 10 10 9 8 8 8 9 10 10 12 14 13 12 12 15 15 15 14 14 14 13
11 10 10 12 12 12 12 12 11 11 11 11 11 11 12 12 11 11 11 11 10 9 8 8 7 6 6 6 6 8 9 12 14 13 12 12 14 15 14 14 14 13 13
8 8 8 9 10 9 10 11 10 10 10 10 10 10 10 10 10 10 9 9 8 7 6 6 5 4 4 4 4 6 9 11 13 12 12 12 14 14 14 14 13 13 12
9 7 7 7 8 9 9 9 9 9 9 8 8 8 8 6 7 7 8 8 7 6 5 4 3 2 2 2 3 5 7 9 13 12 12 13 14 14 14 14 13 12 12
9 8 6 6 7 8 7 8 7 7 7 6 6 6 6 5 5 6 6 7 6 5 4 3 2 1 1 1 1 4 6 9 11 11 12 15 14 14 14 13 13 12 12
10 9 8 7 8 7 5 7 6 5 6 6 7 7 6 5 4 5 4 4 4 4 3 2 1 2 2 3 1 3 7 9 10 11 12 15 15 14 14 13 13 13 12
9 9 8 7 6 6 6 5 5 4 4 5 6 7 6 4 4 4 4 4 4 3 3 2 3 3 4 4 3 4 7 8 10 11 13 15 15 14 14 13 13 13 12
9 8 8 7 7 6 5 4 5 4 5 5 6 7 7 5 4 4 3 4 4 4 4 4 3 3 3 4 3 4 6 9 11 12 13 16 15 15 14 14 13 13 13
8 8 7 7 6 6 4 3 3 5 6 6 5 6 7 7 5 3 2 3 3 5 5 4 4 3 2 2 1 3 6 9 11 12 12 14 16 15 15 14 14 14 14
10 8 8 7 6 5 4 3 4 5 6 5 4 5 6 6 6 4 2 2 3 5 5 3 3 2 2 2 1 2 4 7 9 11 12 12 13 15 16 16 15 15 15
10 9 8 7 6 5 4 3 3 4 5 4 4 4 5 6 6 4 2 2 3 3 3 2 2 1 1 1 1 2 2 4 7 9 11 12 12 12 14 16 16 16 15
10 9 7 6 7 5 4 3 3 3 3 4 4 4 4 4 5 4 2 2 2 2 1 2 2 2 2 2 2 2 2 2 4 7 7 10 11 12 12 13 16 16 16
9 8 7 6 6 5 3 2 2 2 1 3 4 4 4 4 4 3 2 2 2 1 1 1 1 1 2 2 1 1 2 2 3 4 6 7 9 11 12 12 13 14 15
8 8 7 6 5 4 2 2 2 1 1 1 2 4 5 4 4 3 1 1 1 1 2 1 1 1 1 1 1 2 2 2 2 2 3 3 5 8 10 10 10 10 10
9 8 7 7 6 5 4 3 2 2 2 2 1 2 3 4 4 3 3 2 2 2 1 1 1 1 1 1 2 1 1 3 2 1 1 2 3 3 4 7 8 8 8
9 8 8 7 6 5 4 2 2 2 2 1 0 1 1 3 4 2 2 2 2 2 2 2 2 3 2 1 2 3 2 2 2 2 0 1 1 1 2 3 4 5 7
10 8 7 7 6 5 4 4 4 3 2 2 2 1 1 1 2 2 2 2 2 2 2 2 2 2 3 2 1 1 2 3 2 1 2 1 1 1 1 1 2 3 3
10 9 7 6 5 4 4 5 4 3 2 1 1 1 0 0 0 1 2 2 1 1 1 1 1 1 2 2 2 1 1 1 2 2 1 1 1 1 2 2 3 3 2
9 8 7 7 5 4 4 4 5 4 3 2 1 1 0 1 1 1 1 1 1 1 1 1 1 1 2 2 2 2 2 2 2 2 2 1 0 0 2 2 3 3 3
Wind_Direction
112 111 103 99 93 90 88 86 84 83 82 83 83 86 89 91 92 92 94 95 95 96 97 97 99 103 104 106 107 109 110 111 112 112 112 113 113 113 113 112 110 111 113
139 119 108 103 98 95 92 89 87 86 86 87 88 89 89 92 94 94 94 95 96 97 97 97 98 101 103 106 108 110 111 111 111 111 110 111 112 114 114 114 114 116 115
124 118 112 108 104 100 97 94 91 90 90 92 93 93 93 94 96 98 98 98 98 98 97 97 98 100 103 105 108 110 111 112 112 112 110 107 110 113 115 116 116 117 117
126 121 117 113 108 103 100 98 96 94 93 95 96 97 98 98 97 98 100 101 100 100 100 99 99 100 102 105 108 111 114 116 118 115 109 109 112 114 115 118 118 118 120
121 122 122 117 112 108 104 101 99 97 96 97 100 101 101 102 101 100 100 102 102 102 101 101 101 102 103 105 107 109 111 115 119 116 110 109 114 119 119 120 121 122 123
124 126 126 122 118 115 110 106 103 101 100 100 101 103 103 103 103 104 103 104 104 104 103 103 103 103 102 102 103 106 108 118 118 116 116 116 121 125 124 124 124 125 125
131 130 129 126 124 120 116 113 110 107 106 105 105 105 106 106 105 106 106 106 107 108 107 106 105 103 103 101 99 104 110 121 123 120 121 125 129 131 130 128 128 128 127
137 134 133 132 129 127 123 120 117 115 112 111 111 111 111 110 109 109 111 111 111 112 112 109 105 102 101 98 98 104 114 123 128 127 127 132 136 134 133 133 133 132 131
137 136 136 136 133 133 131 127 125 122 119 116 117 119 119 118 117 116 116 117 117 117 116 113 109 103 97 93 98 105 115 122 130 133 136 139 141 140 139 139 138 138 138
139 142 142 140 137 136 139 136 135 133 129 126 125 125 127 127 126 127 127 127 127 127 125 120 115 105 90 80 94 109 120 124 138 140 139 147 148 147 146 145 145 145 145
146 152 153 152 151 152 152 147 145 144 144 140 137 136 132 128 132 138 143 143 142 142 143 141 133 110 68 58 93 111 120 130 136 143 150 156 156 154 153 153 153 153 153
159 166 164 164 167 168 162 153 160 159 161 161 161 154 151 156 166 160 163 161 161 165 173 180 176 195 342 327 40 112 128 137 142 152 161 164 164 162 161 161 161 161 161
164 167 168 171 170 172 161 159 170 174 176 180 181 178 171 176 178 172 177 179 181 188 200 211 241 261 269 283 279 142 150 145 154 161 168 169 170 169 169 170 171 171 171
156 161 160 161 159 160 155 167 173 177 181 181 182 180 170 161 162 176 186 194 196 205 207 215 236 251 259 264 249 172 157 157 160 162 169 172 172 173 173 174 175 176 177
144 148 150 148 145 146 145 166 167 181 187 180 173 172 165 161 165 177 193 198 203 204 195 199 223 247 258 260 235 168 158 167 164 168 176 179 180 181 182 183 185 185 185
144 147 146 143 145 140 135 138 152 171 175 169 166 170 160 164 167 169 183 196 204 205 200 199 210 227 245 244 216 165 164 171 174 175 180 185 188 190 190 191 193 195 194
154 153 151 151 147 140 138 142 142 158 163 165 172 174 163 164 167 171 178 201 210 206 197 200 209 219 238 237 209 177 170 176 178 180 183 187 193 199 199 199 200 202 203
156 157 163 157 151 152 149 141 137 155 159 164 168 170 167 170 171 166 170 210 215 204 196 198 195 188 234 225 221 216 182 180 182 185 188 191 194 202 207 207 207 207 208
160 158 160 152 159 165 159 146 139 151 162 171 172 177 176 171 170 165 177 214 215 195 199 210 183 178 205 228 224 221 207 192 190 191 190 193 196 201 205 213 216 214 215
156 152 152 155 162 160 147 126 112 115 148 173 180 186 184 180 175 169 190 218 193 142 201 201 192 189 192 205 219 244 246 227 204 196 194 192 196 201 205 211 216 220 222
153 151 157 156 165 155 144 149 151 172 187 191 200 192 189 187 174 168 181 191 166 172 214 201 172 175 222 147 76 344 330 296 234 207 182 175 190 199 200 204 206 212 222
163 165 164 165 168 169 168 171 171 168 180 184 196 192 192 185 181 181 182 182 183 184 205 211 171 171 238 154 140 120 340 335 328 251 164 180 195 190 187 197 202 206 211
170 174 171 169 169 173 166 139 112 83 68 71 77 230 226 189 181 180 169 169 177 177 200 221 198 182 209 244 161 150 163 232 292 334 355 131 141 151 172 177 194 206 211
177 174 165 166 168 170 156 149 155 163 177 198 193 206 238 199 191 184 178 171 173 179 199 220 188 180 170 207 241 199 183 172 169 284 342 51 93 109 129 141 163 180 189
172 169 166 161 162 162 156 161 160 162 180 186 162 161 200 297 234 199 191 180 184 187 203 216 183 161 167 178 191 196 177 169 156 164 237 314 27 50 91 95 92 101 111
163 163 162 158 160 155 152 152 157 162 163 152 140 151 205 275 296 280 177 169 185 182 188 188 164 145 158 165 176 165 161 173 185 165 194 212 202 15 66 72 74 77 85
Height
1541 1540 1539 1539 1538 1537 1537 1536 1535 1535 1534 1533 1532 1531 1531 1531 1531 1531 1531 1531 1531 1532 1533 1533 1534 1535 1536 1538 1539 1540 1542 1543 1545 1546 1547 1548 1549 1550 1551 1552 1553 1554 1555
1541 1541 1541 1541 1540 1539 1539 1538 1538 1537 1536 1536 1535 1534 1534 1534 1534 1534 1535 1535 1535 1536 1536 1537 1537 1538 1540 1541 1542 1544 1545 1546 1547 1549 1550 1551 1552 1553 1554 1555 1555 1556 1557
1542 1542 1542 1542 1542 1541 1541 1541 1540 1539 1539 1539 1538 1537 1537 1537 1538 1538 1538 1538 1539 1539 1540 1541 1542 1542 1543 1544 1545 1546 1548 1549 1550 1551 1552 1553 1554 1555 1556 1557 1558 1559 1560
1543 1544 1544 1544 1543 1543 1543 1543 1542 1542 1541 1541 1541 1540 1540 1540 1541 1541 1541 1542 1542 1543 1543 1544 1545 1546 1546 1547 1548 1549 1550 1551 1552 1553 1554 1555 1556 1557 1558 1559 1560 1561 1562
1545 1545 1545 1545 1545 1545 1545 1544 1544 1544 1544 1543 1543 1543 1543 1543 1544 1544 1544 1545 1545 1546 1547 1547 1548 1549 1549 1550 1551 1552 1553 1554 1555 1556 1556 1557 1558 1559 1560 1561 1562 1563 1564
1546 1546 1546 1546 1546 1546 1546 1546 1546 1546 1546 1546 1546 1546 1546 1546 1546 1547 1547 1548 1548 1549 1550 1550 1551 1552 1553 1553 1554 1555 1555 1556 1557 1558 1558 1559 1560 1561 1562 1563 1564 1565 1565
1546 1547 1548 1548 1548 1548 1548 1548 1548 1548 1548 1548 1548 1548 1549 1549 1549 1550 1550 1550 1551 1552 1552 1553 1554 1555 1555 1556 1557 1557 1558 1558 1559 1560 1560 1561 1562 1563 1564 1565 1565 1566 1567
1548 1548 1549 1549 1550 1550 1550 1550 1550 1550 1550 1550 1550 1551 1551 1551 1552 1552 1553 1553 1554 1554 1555 1556 1556 1557 1558 1559 1559 1560 1560 1560 1561 1561 1562 1563 1563 1564 1565 1566 1567 1568 1568
1550 1550 1551 1551 1551 1552 1552 1552 1552 1552 1553 1553 1553 1553 1553 1554 1554 1554 1555 1556 1556 1557 1557 1558 1559 1560 1560 1561 1561 1561 1562 1562 1562 1563 1564 1564 1565 1566 1566 1567 1568 1569 1570
1552 1552 1552 1553 1553 1553 1554 1554 1554 1554 1554 1555 1555 1555 1555 1556 1556 1557 1557 1558 1558 1559 1559 1560 1561 1562 1562 1563 1563 1563 1563 1564 1564 1565 1565 1566 1566 1567 1567 1568 1569 1570 1570
1553 1554 1554 1554 1555 1555 1555 1556 1556 1556 1556 1557 1557 1557 1557 1558 1558 1559 1559 1560 1560 1561 1561 1562 1563 1564 1564 1564 1565 1565 1565 1565 1565 1566 1566 1567 1567 1568 1568 1569 1570 1570 1571
1554 1555 1555 1555 1556 1556 1557 1557 1557 1557 1558 1558 1558 1559 1559 1559 1560 1560 1561 1562 1562 1563 1563 1564 1565 1565 1565 1566 1566 1566 1566 1566 1566 1567 1567 1567 1568 1568 1569 1570 1570 1571 1572
1554 1555 1555 1556 1556 1557 1558 1558 1558 1559 1559 1559 1560 1560 1560 1561 1561 1561 1562 1562 1563 1564 1564 1565 1565 1566 1566 1566 1567 1567 1567 1567 1567 1567 1568 1568 1568 1569 1569 1570 1570 1571 1572
1554 1555 1556 1556 1557 1558 1558 1559 1559 1559 1560 1560 1561 1561 1561 1561 1562 1562 1563 1563 1564 1564 1565 1566 1566 1566 1566 1567 1567 1567 1567 1567 1568 1568 1568 1568 1569 1569 1569 1570 1570 1571 1572
1554 1555 1556 1557 1557 1558 1559 1559 1560 1560 1561 1561 1561 1561 1561 1562 1562 1562 1563 1563 1564 1564 1565 1566 1566 1566 1566 1566 1567 1567 1567 1568 1568 1568 1568 1568 1569 1569 1569 1570 1570 1571 1571
1554 1555 1556 1557 1558 1559 1559 1560 1560 1560 1561 1561 1561 1561 1561 1562 1562 1562 1563 1563 1564 1564 1565 1565 1566 1566 1566 1566 1566 1566 1567 1567 1568 1568 1568 1568 1568 1569 1569 1569 1570 1570 1570
1554 1555 1556 1557 1558 1559 1559 1560 1560 1560 1560 1561 1561 1561 1561 1561 1562 1562 1562 1563 1563 1564 1564 1565 1565 1565 1566 1566 1566 1566 1566 1566 1567 1567 1567 1567 1568 1568 1568 1569 1569 1569 1570
1554 1555 1556 1557 1558 1558 1559 1559 1560 1560 1560 1560 1561 1561 1561 1561 1561 1561 1562 1562 1563 1563 1563 1564 1564 1564 1565 1565 1565 1565 1565 1565 1565 1566 1566 1566 1566 1567 1567 1567 1568 1568 1568
1553 1554 1555 1556 1557 1558 1558 1559 1559 1559 1559 1560 1560 1560 1560 1560 1560 1560 1561 1561 1562 1562 1562 1563 1563 1563 1563 1563 1563 1564 1564 1564 1564 1564 1564 1564 1565 1565 1565 1566 1566 1566 1567
1552 1553 1554 1555 1556 1557 1558 1558 1558 1558 1559 1559 1559 1560 1559 1559 1559 1560 1560 1560 1560 1561 1561 1561 1561 1562 1562 1562 1562 1562 1562 1562 1562 1562 1562 1562 1562 1563 1563 1563 1564 1564 1565
1551 1552 1553 1554 1555 1556 1556 1557 1557 1557 1558 1558 1558 1558 1558 1558 1559 1559 1559 1559 1559 1559 1559 1559 1560 1560 1560 1560 1560 1560 1560 1560 1560 1560 1560 1560 1560 1561 1561 1561 1562 1562 1562
1550 1551 1552 1553 1554 1554 1555 1556 1556 1556 1556 1557 1557 1557 1557 1558 1558 1558 1558 1558 1558 1558 1558 1558 1558 1558 1558 1558 1558 1558 1558 1559 1558 1558 1558 1558 1558 1559 1559 1559 1559 1559 1559
1548 1549 1551 1552 1552 1553 1554 1554 1555 1555 1555 1556 1556 1556 1556 1556 1556 1556 1556 1556 1556 1556 1556 1556 1556 1556 1556 1556 1556 1557 1556 1555 1556 1556 1556 1556 1556 1556 1556 1556 1556 1556 1557
1546 1548 1549 1550 1551 1552 1552 1553 1553 1554 1554 1554 1555 1555 1555 1555 1555 1555 1555 1555 1554 1554 1554 1554 1554 1554 1554 1553 1554 1553 1554 1554 1554 1553 1554 1554 1554 1554 1554 1554 1554 1554 1554
1545 1546 1548 1549 1550 1550 1551 1551 1552 1552 1553 1553 1553 1554 1554 1554 1554 1554 1553 1553 1553 1553 1552 1552 1552 1551 1551 1551 1551 1551 1551 1551 1551 1551 1551 1552 1552 1552 1552 1552 1552 1551 1552
1543 1545 1546 1547 1548 1549 1549 1550 1550 1551 1551 1552 1552 1552 1552 1552 1552 1552 1552 1551 1551 1551 1550 1550 1550 1549 1549 1548 1548 1548 1548 1548 1548 1548 1548 1549 1550 1551 1551 1550 1550 1550 1550